Left ArrowRight Arrow

Hourly Observations for March 23, 2019

Temp ( °F °C ) Dew Point ( °F °C ) Humidity (%) Winds ( mph kmh ) Pressure ( in mb ) Visibility ( mi km ) Precip ( " mm )
12:56 am 00:56 Mostly Clear 46 8 30 -1 53 53 ENE 6 9 30.16 1021 10 16 0.00 0.00
1:56 am 01:56 Cloudy 46 8 30 -1 53 53 E 9 15 30.16 1021 10 16 0.00 0.00
2:56 am 02:56 Cloudy 46 8 30 -1 53 53 E 9 15 30.18 1022 10 16 0.00 0.00
3:56 am 03:56 Cloudy 45 7 30 -1 57 57 E 7 11 30.18 1022 10 16 0.00 0.00
4:56 am 04:56 Cloudy 45 7 30 -1 57 57 E 10 17 30.15 1021 10 16 0.00 0.00
5:56 am 05:56 Cloudy 43 6 30 -1 61 61 E 10 17 30.15 1021 10 16 0.00 0.00
6:56 am 06:56 Partly Cloudy 43 6 30 -1 61 61 E 12 19 30.15 1021 10 16 0.00 0.00
7:56 am 07:56 Sunny 43 6 30 -1 61 61 E 12 19 30.15 1021 10 16 0.00 0.00
8:56 am 08:56 Sunny 45 7 30 -1 57 57 E 10 17 30.14 1021 10 16 0.00 0.00
9:56 am 09:56 Sunny 46 8 30 -1 53 53 ESE 6 9 30.15 1021 10 16 0.00 0.00
10:50 am 10:50 Cloudy with Drizzle 45 7 32 0 61 61 E 6 9 30.15 1021 5 8 0.00 0.00
10:56 am 10:56 Cloudy with Drizzle 45 7 32 0 61 61 ESE 5 7 30.15 1021 6 10 0.00 0.00
11:33 am 11:33 Cloudy 45 7 32 0 61 61 E 6 9 30.15 1021 10 16 0.00 0.00
11:58 am 11:58 Cloudy 45 7 34 1 66 66 NE 7 11 30.12 1020 10 16 0.00 0.00
12:56 pm 12:56 Cloudy 50 10 36 2 58 58 ESE 5 7 30.10 1019 10 16 0.00 0.00
1:56 pm 13:56 Cloudy 52 11 36 2 54 54 SE 9 15 30.08 1019 10 16 0.00 0.00
2:55 pm 14:55 Cloudy 52 11 36 2 54 54 E 9 15 30.06 1018 10 16 0.00 0.00
3:56 pm 15:56 Cloudy 52 11 36 2 54 54 E 8 13 30.04 1017 10 16 0.00 0.00
4:56 pm 16:56 Cloudy 52 11 36 2 54 54 E 9 15 30.04 1017 10 16 0.00 0.00
5:56 pm 17:56 Cloudy 52 11 39 4 62 62 ESE 15 24 30.02 1016 10 16 0.00 0.00
6:56 pm 18:56 Cloudy 50 10 41 5 71 71 E 13 20 30.02 1017 10 16 0.00 0.00
7:56 pm 19:56 Mostly Cloudy 48 9 41 5 76 76 E 14 22 30.00 1016 10 16 0.00 0.00
8:56 pm 20:56 Cloudy 48 9 41 5 76 76 E 9 15 30.01 1016 10 16 0.00 0.00
9:56 pm 21:56 Mostly Cloudy 50 10 41 5 71 71 E 8 13 30.01 1016 10 16 0.00 0.00
10:56 pm 22:56 Mostly Cloudy 50 10 41 5 71 71 E 9 15 30.00 1016 10 16 0.00 0.00
11:56 pm 23:56 Mostly Cloudy 50 10 41 5 71 71 ESE 9 15 29.97 1015 10 16 0.00 0.00

Powered by Vaisala Xweather